Location: Alma
(38.7220°N, 88.9090°W)
Time: 05:23:44
(UTC-06:00)

Vanguard 2 Rocket - Pass Details

Date: 17 November 2019
Orbit: 554 x 3326 km, 32.9° (Epoch: 05 December)

Event Time Altitude Azimuth Distance (km) Brightness Sun altitude
Rises 09:21:09 0° 259° (W) 5,259 10.6 23.7°
Reaches altitude 10° 09:28:18 10° 230° (SW) 4,966 10.8 24.5°
Maximum altitude 09:32:19 12° 214° (SW) 5,168 11.1 24.9°
Drops below altitude 10° 09:36:47 10° 198° (SSW) 5,622 11.6 25.4°
Sets 09:47:12 0° 172° (S) 7,150 12.5 26.4°
